Date String (YYYY-MM-DD hh:mm:ss) UTC,Instrument flags,absolute air pressure of the measurement (hPa),sample flow rate (lpm),inlet stack bypass flow (lpm),air temperature of the measurement (°C),ambient temperature measured by the external sensor (°C),aerosol sample conditioner tube jacket temperature (°C),OPC LED temperature (°C),internal box temperature (°C),relative humidity of the measurement (%),span deviation,mass concentration of particles derived from Lorenz-Mie calculation of OPC scattering (μg/m³),mass concentration of particles derived from Lorenz-Mie calculation of OPC scattering (μg/m³),mass concentration of particles derived from Lorenz-Mie calculation of OPC scattering (μg/m³)
DateTimeUTC,F1_M11,P_M11,Q1_M11,Q2_M11,T1_M11,T2_M11,T3_M11,T4_M11,T5_M11,U1_M11,ZSPAN_M11,X2_M11,X0_M11,X1_M11
2023-07-10 11:00:00,SystemResetWarning,0830.6,5.01,000.00,029.9,028.6,000.0,038.4,031.4,25.7,0000.0,0006.18,0009.19,0005.67
2023-07-10 11:01:00,SystemResetWarning,0830.6,5.01,000.00,030.0,028.7,000.0,038.4,031.5,26.6,0000.0,0006.14,0009.19,0005.66
2023-07-10 11:02:00,SystemResetWarning,0830.7,4.99,000.00,030.0,028.7,000.0,038.5,031.5,27.3,0000.0,0006.11,0009.33,0005.65
2023-07-10 11:03:00,SystemResetWarning,0830.6,5.00,000.00,030.0,028.7,000.0,038.5,031.5,27.1,0000.0,0006.09,0009.61,0005.66
2023-07-10 11:04:00,SystemResetWarning,0830.7,5.00,000.00,030.0,028.7,000.0,038.5,031.5,26.2,0000.0,0006.11,0009.72,0005.65
2023-07-10 11:05:00,SystemResetWarning,0830.6,5.00,000.00,030.0,028.7,000.0,038.5,031.5,26.6,0000.0,0006.10,0009.64,0005.62
2023-07-10 11:06:00,SystemResetWarning,0830.6,4.99,000.00,030.0,027.1,000.0,038.4,031.3,26.8,0000.0,0006.11,0009.58,0005.62
2023-07-10 11:07:00,SystemResetWarning,0830.6,5.00,000.00,029.9,025.5,000.0,038.3,031.1,27.1,0000.0,0006.16,0009.90,0005.63
2023-07-10 11:08:00,SystemResetWarning,0830.6,5.00,000.00,029.8,025.1,000.0,038.2,030.8,27.3,0000.0,0006.20,0010.18,0005.65
2023-07-10 11:09:00,SystemResetWarning,0830.6,5.01,000.00,029.6,025.3,000.0,038.2,030.6,27.5,0000.0,0006.24,0010.71,0005.66
2023-07-10 11:10:00,SystemResetWarning,0830.6,5.00,000.00,029.5,025.7,000.0,038.2,030.6,27.6,0000.0,0006.29,0010.83,0005.68
2023-07-10 11:11:00,SystemResetWarning,0830.6,4.99,000.00,029.5,026.2,000.0,038.2,030.7,27.5,0000.0,0006.31,0010.88,0005.69
2023-07-10 11:12:00,SystemResetWarning,0830.6,5.00,000.00,029.5,026.5,000.0,038.2,030.7,27.1,0000.0,0006.35,0010.87,0005.71
2023-07-10 11:13:00,SystemResetWarning,0830.6,5.00,000.00,029.5,026.9,000.0,038.2,030.8,27.1,0000.0,0006.39,0010.88,0005.73
2023-07-10 11:14:00,SystemResetWarning,0830.6,5.01,000.00,029.5,027.1,000.0,038.2,030.8,27.1,0000.0,0006.41,0010.54,0005.75
2023-07-10 11:15:00,SystemResetWarning,0830.6,5.00,000.00,029.5,027.3,000.0,038.1,030.9,27.0,0000.0,0006.42,0010.53,0005.77
2023-07-10 11:16:00,SystemResetWarning,0830.6,4.99,000.00,029.5,027.5,000.0,038.1,030.9,26.9,0000.0,0006.45,0010.53,0005.79
2023-07-10 11:17:00,SystemResetWarning,0830.7,5.00,000.00,029.5,027.7,000.0,038.1,030.9,26.8,0000.0,0006.46,0010.58,0005.82
2023-07-10 11:18:00,SystemResetWarning,0830.6,5.00,000.00,029.5,027.8,000.0,038.1,031.0,26.7,0000.0,0006.45,0011.03,0005.83
2023-07-10 11:19:00,SystemResetWarning,0830.6,5.01,000.00,029.5,027.9,000.0,038.1,031.0,26.1,0000.0,0006.41,0011.17,0005.82
2023-07-10 11:20:00,SystemResetWarning,0830.6,5.01,000.00,029.5,028.0,000.0,038.1,031.0,25.6,0000.0,0006.41,0010.67,0005.82
2023-07-10 11:21:00,SystemResetWarning,0830.6,4.99,000.00,029.5,028.1,000.0,038.1,031.1,25.3,0000.0,0006.37,0010.61,0005.82
2023-07-10 11:22:00,SystemResetWarning,0830.6,5.00,000.00,029.5,028.1,000.0,038.1,031.1,25.3,0000.0,0006.37,0010.62,0005.84
2023-07-10 11:23:00,SystemResetWarning,0830.6,4.99,000.00,029.6,028.2,000.0,038.1,031.1,25.3,0000.0,0006.35,0010.57,0005.84
2023-07-10 11:24:00,SystemResetWarning,0830.6,5.01,000.00,029.6,028.2,000.0,038.1,031.1,26.7,-000.2,0006.33,0010.49,0005.84
2023-07-10 11:25:00,SystemResetWarning,0830.7,5.01,000.00,029.6,028.3,000.0,038.2,031.2,26.2,-000.2,0006.28,0010.29,0005.83
2023-07-10 11:26:00,SystemResetWarning,0830.6,5.00,000.00,029.6,028.3,000.0,038.2,031.2,25.1,0000.5,0006.28,0010.38,0005.81
2023-07-10 11:27:00,SystemResetWarning,0830.6,5.00,000.00,029.6,028.4,000.0,038.2,031.2,25.0,0000.5,0006.25,0010.43,0005.78
2023-07-10 11:28:00,SystemResetWarning,0830.6,4.99,000.00,029.7,028.4,000.0,038.2,031.2,24.7,0001.1,0006.24,0010.41,0005.76
2023-07-10 11:29:00,SystemResetWarning,0830.6,5.00,000.00,029.7,028.4,000.0,038.2,031.2,24.4,0001.3,0006.22,0010.18,0005.72
2023-07-10 11:30:00,SystemResetWarning,0830.6,5.01,000.00,029.7,028.4,000.0,038.2,031.3,24.4,0001.7,0006.22,0009.94,0005.69
2023-07-10 11:31:00,SystemResetWarning,0830.6,5.00,000.00,029.7,028.5,000.0,038.2,031.3,24.4,0001.2,0006.23,0010.00,0005.67
2023-07-10 11:32:00,SystemResetWarning,0830.6,5.00,000.00,029.7,028.5,000.0,038.2,031.3,24.9,0001.2,0006.21,0009.96,0005.63
2023-07-10 11:33:00,SystemResetWarning,0830.6,4.99,000.00,029.8,028.5,000.0,038.3,031.3,25.0,0000.3,0006.18,0010.59,0005.59
2023-07-10 11:34:00,SystemResetWarning,0830.6,5.00,000.00,029.8,028.5,000.0,038.3,031.3,24.6,0000.0,0006.13,0011.06,0005.54
2023-07-10 11:35:00,SystemResetWarning,0830.6,5.02,000.00,029.8,028.5,000.0,038.3,031.3,24.3,0000.0,0006.08,0011.47,0005.49
2023-07-10 11:36:00,SystemResetWarning,0830.6,5.00,000.00,029.8,028.6,000.0,038.3,031.4,23.8,0000.0,0006.07,0012.25,0005.45
2023-07-10 11:37:00,SystemResetWarning,0830.6,5.00,000.00,029.8,028.6,000.0,038.3,031.4,23.9,0000.0,0006.03,0012.28,0005.41
2023-07-10 11:38:00,SystemResetWarning,0830.6,4.98,000.00,029.8,028.6,000.0,038.3,031.4,23.9,0000.0,0006.00,0012.08,0005.37
2023-07-10 11:39:00,SystemResetWarning,0830.7,5.00,000.00,029.9,028.6,000.0,038.3,031.4,24.1,0000.0,0006.00,0012.13,0005.36
2023-07-10 11:40:00,SystemResetWarning,0830.7,5.00,000.00,029.9,028.6,000.0,038.3,031.4,24.1,0000.0,0005.99,0011.96,0005.36
2023-07-10 11:41:00,SystemResetWarning,0830.7,5.00,000.00,029.9,028.6,000.0,038.4,031.4,23.9,0000.0,0005.94,0011.62,0005.33
2023-07-10 11:42:00,SystemResetWarning,0830.7,5.00,000.00,029.9,028.6,000.0,038.4,031.4,23.3,0000.0,0005.89,0011.71,0005.29
2023-07-10 11:43:00,SystemResetWarning,0830.7,5.00,000.00,029.9,028.6,000.0,038.4,031.5,23.3,0000.0,0005.84,0011.98,0005.25
2023-07-10 11:44:00,SystemResetWarning,0830.7,5.00,000.00,029.9,028.7,000.0,038.4,031.4,23.5,0000.0,0005.81,0011.64,0005.22
2023-07-10 11:45:00,SystemResetWarning,0830.7,4.99,000.00,029.9,028.7,000.0,038.4,031.4,23.4,0000.0,0005.84,0011.17,0005.21
2023-07-10 11:46:00,SystemResetWarning,0830.7,5.00,000.00,029.9,028.7,000.0,038.4,031.5,23.4,0000.0,0005.84,0010.79,0005.19
2023-07-10 11:47:00,SystemResetWarning,0830.7,5.00,000.00,030.0,028.7,000.0,038.5,031.5,23.1,0000.0,0005.81,0010.14,0005.18
2023-07-10 11:48:00,SystemResetWarning,0830.7,5.00,000.00,030.0,028.7,000.0,038.5,031.5,23.3,0000.0,0005.76,0009.83,0005.17
2023-07-10 11:49:00,SystemResetWarning,0830.7,4.99,000.00,030.0,028.7,000.0,038.5,031.5,23.3,0000.0,0005.71,0009.79,0005.14
2023-07-10 11:50:00,SystemResetWarning,0830.7,5.00,000.00,030.0,028.7,000.0,038.5,031.5,24.8,0000.0,0005.65,0009.79,0005.11
2023-07-10 11:51:00,SystemResetWarning,0830.7,5.00,000.00,030.0,028.7,000.0,038.5,031.6,26.9,0000.0,0005.61,0009.80,0005.08
2023-07-10 11:52:00,SystemResetWarning,0830.7,5.00,000.00,030.0,028.8,000.0,038.5,031.6,27.7,0000.0,0005.59,0009.74,0005.08
2023-07-10 11:53:00,SystemResetWarning,0830.7,5.00,000.00,030.1,028.8,000.0,038.5,031.6,27.2,0000.0,0005.58,0009.52,0005.05
2023-07-10 11:54:00,SystemResetWarning,0830.7,5.00,000.00,030.1,028.8,000.0,038.6,031.6,27.2,0000.0,0005.58,0009.51,0005.05
2023-07-10 11:55:00,SystemResetWarning,0830.7,5.00,000.00,030.1,028.8,000.0,038.6,031.6,27.2,0000.0,0005.57,0009.44,0005.05
2023-07-10 11:56:00,SystemResetWarning,0830.7,5.01,000.00,030.1,028.8,000.0,038.6,031.6,26.2,0000.0,0005.56,0010.24,0005.07
2023-07-10 11:57:00,SystemResetWarning,0830.7,4.99,000.00,030.1,027.6,000.0,038.5,031.6,27.8,0000.0,0005.64,0010.48,0005.17
2023-07-10 11:58:00,SystemResetWarning,0830.7,5.00,000.00,030.0,025.7,000.0,038.4,031.3,28.7,0000.0,0005.80,0010.63,0005.29
2023-07-10 11:59:00,SystemResetWarning,0830.6,5.00,000.00,029.9,025.1,000.0,038.3,031.0,28.6,0000.0,0005.92,0010.80,0005.38
